| time (UTC) | temp C | wind direction | speed KPH | gust KPH | rain 1hr cm | rain 24hr cm | rain mn cm | humidity % | barometer mb |
| 20260507081847 | 11 | 286 | 4.8 | 8.0 | 0.00 | 0.69 | 0.00 | 77 | 1009.1 |
| 20260507081348 | 12 | 285 | 6.4 | 8.0 | 0.00 | 0.69 | 0.00 | 77 | 1009.2 |
| 20260507080848 | 12 | 286 | 4.8 | 6.4 | 0.00 | 0.69 | 0.00 | 76 | 1009.1 |
| 20260507080345 | 12 | 292 | 3.2 | 6.4 | 0.00 | 0.69 | 0.00 | 78 | 1009.1 |
| 20260507075844 | 12 | 298 | 3.2 | 6.4 | 0.00 | 0.69 | 0.00 | 77 | 1009.0 |
| 20260507075345 | 12 | 281 | 1.6 | 4.8 | 0.00 | 0.69 | 0.00 | 76 | 1009.1 |
| 20260507074842 | 12 | 293 | 0.0 | 6.4 | 0.00 | 0.69 | 0.00 | 77 | 1009.0 |
| 20260507074340 | 12 | 293 | 1.6 | 6.4 | 0.00 | 0.69 | 0.00 | 77 | 1009.1 |
| 20260507073840 | 12 | 79 | 1.6 | 4.8 | 0.00 | 0.69 | 0.00 | 76 | 1009.0 |
| 20260507073345 | 12 | 79 | 0.0 | 4.8 | 0.00 | 0.69 | 0.00 | 76 | 1009.0 |
| 20260507072837 | 12 | 79 | 1.6 | 4.8 | 0.00 | 0.69 | 0.00 | 77 | 1009.0 |
| 20260507072335 | 11 | 79 | 0.0 | 4.8 | 0.00 | 0.69 | 0.00 | 79 | 1009.0 |
| 20260507072113 | 11 | 79 | 0.0 | 3.2 | 0.00 | 0.69 | 0.00 | 81 | 1008.9 |
| 20260507071333 | 11 | 71 | 0.0 | 3.2 | 0.00 | 0.69 | 0.00 | 82 | 1008.9 |
| 20260507070835 | 10 | 71 | 3.2 | 4.8 | 0.00 | 0.69 | 0.00 | 83 | 1008.9 |
| 20260507070332 | 10 | 71 | 1.6 | 4.8 | 0.00 | 0.69 | 0.00 | 83 | 1008.9 |
| 20260507070116 | 10 | 71 | 3.2 | 3.2 | 0.00 | 0.69 | 0.00 | 83 | 1008.8 |
| 20260507065331 | 10 | 71 | 0.0 | 4.8 | 0.00 | 0.71 | 0.00 | 84 | 1008.8 |
| 20260507065114 | 10 | 71 | 1.6 | 4.8 | 0.00 | 0.71 | 0.00 | 84 | 1008.7 |
| 20260507064335 | 9 | 71 | 3.2 | 4.8 | 0.00 | 0.74 | 0.00 | 85 | 1008.7 |
| 20260507063834 | 9 | 71 | 3.2 | 4.8 | 0.00 | 0.76 | 0.00 | 86 | 1008.6 |
| 20260507063333 | 8 | 71 | 0.0 | 3.2 | 0.00 | 0.76 | 0.00 | 87 | 1008.7 |
| 20260507062830 | 8 | 71 | 1.6 | 3.2 | 0.00 | 0.79 | 0.00 | 87 | 1008.7 |
| 20260507062330 | 8 | 71 | 1.6 | 4.8 | 0.00 | 0.79 | 0.00 | 87 | 1008.8 |
| 20260507061827 | 8 | 71 | 3.2 | 6.4 | 0.00 | 0.84 | 0.00 | 87 | 1008.8 |
| 20260507061617 | 8 | 71 | 3.2 | 6.4 | 0.00 | 0.86 | 0.00 | 87 | 1008.7 |
| 20260507060825 | 8 | 16 | 3.2 | 4.8 | 0.00 | 0.86 | 0.00 | 87 | 1008.8 |
| 20260507060327 | 8 | 14 | 3.2 | 4.8 | 0.00 | 0.89 | 0.00 | 88 | 1008.6 |
| 20260507055823 | 8 | 14 | 3.2 | 4.8 | 0.00 | 0.89 | 0.00 | 87 | 1008.6 |
| 20260507055322 | 8 | 14 | 3.2 | 4.8 | 0.00 | 0.89 | 0.00 | 86 | 1008.6 |
| 20260507054824 | 8 | 14 | 0.0 | 3.2 | 0.00 | 0.89 | 0.00 | 86 | 1008.5 |
| 20260507054321 | 8 | 14 | 0.0 | 3.2 | 0.00 | 0.89 | 0.00 | 85 | 1008.5 |
| 20260507053821 | 8 | 14 | 1.6 | 4.8 | 0.00 | 0.89 | 0.00 | 85 | 1008.5 |
| 20260507053322 | 8 | 14 | 3.2 | 8.0 | 0.00 | 0.89 | 0.00 | 84 | 1008.3 |
| 20260507052822 | 8 | 14 | 4.8 | 8.0 | 0.00 | 0.89 | 0.00 | 85 | 1008.3 |
| 20260507052325 | 8 | 18 | 6.4 | 8.0 | 0.00 | 0.89 | 0.00 | 85 | 1008.3 |
| 20260507051822 | 7 | 0 | 4.8 | 6.4 | 0.00 | 0.89 | 0.00 | 86 | 1008.2 |
| 20260507051318 | 7 | 0 | 3.2 | 3.2 | 0.00 | 0.89 | 0.00 | 86 | 1008.3 |
| 20260507050818 | 7 | 0 | 1.6 | 3.2 | 0.00 | 0.89 | 0.00 | 86 | 1008.4 |
| 20260507050318 | 8 | 0 | 3.2 | 4.8 | 0.00 | 0.89 | 0.00 | 86 | 1008.4 |
| 20260507045816 | 8 | 0 | 3.2 | 4.8 | 0.00 | 0.89 | 0.00 | 86 | 1008.4 |
| 20260507045315 | 8 | 0 | 3.2 | 3.2 | 0.00 | 0.89 | 0.00 | 86 | 1008.3 |
| 20260507044816 | 8 | 0 | 0.0 | 6.4 | 0.00 | 0.89 | 0.00 | 85 | 1008.4 |
| 20260507044313 | 8 | 0 | 3.2 | 6.4 | 0.00 | 0.89 | 0.00 | 85 | 1008.2 |
| 20260507043814 | 8 | 0 | 4.8 | 6.4 | 0.00 | 0.89 | 0.00 | 86 | 1008.2 |
| 20260507043559 | 8 | 75 | 3.2 | 6.4 | 0.00 | 0.89 | 0.00 | 86 | 1007.8 |
| 20260507042811 | 8 | 78 | 1.6 | 3.2 | 0.00 | 0.89 | 0.00 | 86 | 1007.8 |
| 20260507042312 | 8 | 78 | 1.6 | 3.2 | 0.00 | 0.89 | 0.00 | 86 | 1007.9 |
| 20260507041811 | 8 | 78 | 1.6 | 4.8 | 0.00 | 0.89 | 0.00 | 86 | 1007.7 |
| 20260507041601 | 8 | 78 | 3.2 | 4.8 | 0.00 | 0.89 | 0.00 | 86 | 1007.8 |
| 20260507040809 | 8 | 78 | 3.2 | 4.8 | 0.00 | 0.89 | 0.00 | 86 | 1007.8 |
| 20260507040306 | 8 | 78 | 0.0 | 3.2 | 0.00 | 0.89 | 0.00 | 86 | 1007.8 |
| 20260507035815 | 8 | 78 | 0.0 | 4.8 | 0.00 | 0.89 | 0.00 | 86 | 1007.8 |
| 20260507035309 | 8 | 78 | 1.6 | 4.8 | 0.00 | 0.89 | 0.00 | 86 | 1007.8 |
| 20260507034808 | 8 | 78 | 0.0 | 6.4 | 0.00 | 0.89 | 0.00 | 86 | 1007.8 |
| 20260507034309 | 8 | 78 | 3.2 | 6.4 | 0.00 | 0.89 | 0.00 | 86 | 1007.7 |
| 20260507033808 | 8 | 326 | 0.0 | 8.0 | 0.00 | 0.89 | 0.00 | 85 | 1007.8 |
| 20260507033309 | 8 | 321 | 3.2 | 11.3 | 0.00 | 0.89 | 0.00 | 85 | 1007.7 |
| 20260507032803 | 8 | 350 | 8.0 | 11.3 | 0.00 | 0.89 | 0.00 | 85 | 1007.6 |
| 20260507032559 | 7 | 357 | 0.0 | 3.2 | 0.00 | 0.89 | 0.00 | 85 | 1007.5 |
| 20260507031806 | 7 | 357 | 1.6 | 4.8 | 0.00 | 0.89 | 0.00 | 85 | 1007.4 |
| 20260507031557 | 7 | 358 | 3.2 | 4.8 | 0.00 | 0.89 | 0.00 | 86 | 1007.4 |
| 20260507030805 | 7 | 350 | 3.2 | 4.8 | 0.00 | 0.89 | 0.00 | 85 | 1007.5 |
| 20260507030305 | 7 | 350 | 1.6 | 4.8 | 0.00 | 0.89 | 0.00 | 85 | 1007.6 |
| 20260507025802 | 7 | 350 | 3.2 | 6.4 | 0.00 | 0.89 | 0.00 | 84 | 1007.6 |
| 20260507025306 | 8 | 337 | 3.2 | 8.0 | 0.00 | 0.89 | 0.00 | 84 | 1007.7 |
| 20260507024803 | 8 | 333 | 4.8 | 8.0 | 0.00 | 0.89 | 0.00 | 83 | 1007.6 |
| 20260507024306 | 8 | 47 | 0.0 | 6.4 | 0.00 | 0.89 | 0.00 | 83 | 1007.6 |
| 20260507023805 | 7 | 42 | 3.2 | 6.4 | 0.00 | 0.89 | 0.00 | 84 | 1007.5 |
| 20260507023559 | 7 | 44 | 1.6 | 6.4 | 0.00 | 0.89 | 0.00 | 85 | 1007.5 |
| 20260507022757 | 7 | 44 | 3.2 | 6.4 | 0.00 | 0.89 | 0.00 | 85 | 1007.6 |
| 20260507022256 | 8 | 44 | 3.2 | 6.4 | 0.00 | 0.89 | 0.00 | 86 | 1007.6 |
| 20260507021800 | 7 | 44 | 3.2 | 6.4 | 0.00 | 0.89 | 0.00 | 86 | 1007.6 |
| 20260507021547 | 7 | 18 | 3.2 | 4.8 | 0.00 | 0.89 | 0.00 | 86 | 1007.7 |
| 20260507020754 | 7 | 7 | 3.2 | 8.0 | 0.00 | 0.89 | 0.00 | 86 | 1007.8 |
| 20260507020245 | 7 | 7 | 1.6 | 8.0 | 0.00 | 0.89 | 0.00 | 86 | 1007.8 |
| 20260507015738 | 7 | 28 | 0.0 | 6.4 | 0.00 | 0.89 | 0.00 | 85 | 1007.7 |
| 20260507015239 | 8 | 28 | 3.2 | 6.4 | 0.00 | 0.89 | 0.00 | 85 | 1007.6 |
| 20260507014737 | 8 | 28 | 3.2 | 4.8 | 0.00 | 0.89 | 0.00 | 85 | 1007.5 |
| 20260507014233 | 8 | 28 | 3.2 | 4.8 | 0.00 | 0.89 | 0.00 | 84 | 1007.5 |
| 20260507013732 | 8 | 28 | 3.2 | 4.8 | 0.00 | 0.89 | 0.00 | 84 | 1007.5 |
| 20260507013232 | 8 | 16 | 0.0 | 0.0 | 0.00 | 0.89 | 0.00 | 84 | 1007.5 |
| 20260507013023 | 8 | 355 | 0.0 | 4.8 | 0.00 | 0.89 | 0.00 | 84 | 1007.6 |
| 20260507012312 | 8 | 354 | 1.6 | 8.0 | 0.00 | 0.89 | 0.00 | 84 | 1007.7 |
| 20260507012253 | 8 | 354 | 0.0 | 6.4 | 0.00 | 0.89 | 0.00 | 84 | 1007.7 |
| 20260507011232 | 9 | 337 | 4.8 | 9.7 | 0.00 | 0.89 | 0.00 | 82 | 1007.7 |
| 20260507010731 | 9 | 353 | 8.0 | 9.7 | 0.00 | 0.89 | 0.00 | 80 | 1007.7 |
| 20260507010230 | 9 | 37 | 4.8 | 8.0 | 0.00 | 0.89 | 0.00 | 78 | 1007.5 |
| 20260507005703 | 8 | 69 | 4.8 | 9.7 | 0.00 | 0.89 | 0.00 | 80 | 1007.5 |
| 20260507005203 | 8 | 49 | 6.4 | 9.7 | 0.00 | 0.89 | 0.00 | 83 | 1007.5 |
| 20260507004702 | 8 | 49 | 0.0 | 4.8 | 0.00 | 0.89 | 0.00 | 84 | 1007.6 |
| 20260507004201 | 8 | 49 | 0.0 | 6.4 | 0.00 | 0.89 | 0.00 | 84 | 1007.5 |
| 20260507003702 | 8 | 49 | 4.8 | 6.4 | 0.00 | 0.89 | 0.00 | 86 | 1007.5 |
| 20260507003201 | 8 | 47 | 4.8 | 6.4 | 0.00 | 0.89 | 0.00 | 86 | 1007.6 |
| 20260507002702 | 8 | 47 | 3.2 | 6.4 | 0.00 | 0.89 | 0.00 | 86 | 1007.7 |
| 20260507002204 | 8 | 35 | 3.2 | 6.4 | 0.00 | 0.89 | 0.00 | 86 | 1007.6 |
| 20260507001705 | 8 | 35 | 0.0 | 4.8 | 0.00 | 0.89 | 0.00 | 85 | 1007.6 |
| 20260507001210 | 8 | 35 | 1.6 | 4.8 | 0.00 | 0.89 | 0.00 | 85 | 1007.6 |
| 20260507000704 | 8 | 35 | 3.2 | 4.8 | 0.00 | 0.89 | 0.00 | 84 | 1007.5 |
| 20260507000205 | 8 | 35 | 3.2 | 6.4 | 0.00 | 0.89 | 0.00 | 84 | 1007.5 |
| 20260506235700 | 8 | 44 | 3.2 | 6.4 | 0.00 | 0.89 | 0.00 | 83 | 1007.6 |
| 20260506235201 | 8 | 44 | 3.2 | 6.4 | 0.00 | 0.89 | 0.00 | 83 | 1007.5 |
| 20260506234949 | 8 | 21 | 4.8 | 6.4 | 0.00 | 0.89 | 0.00 | 83 | 1007.5 |
| 20260506234453 | 8 | 192 | 1.6 | 6.4 | 0.00 | 0.89 | 0.00 | 82 | 1007.4 |
| 20260506233701 | 9 | 190 | 1.6 | 9.7 | 0.00 | 0.89 | 0.00 | 81 | 1007.3 |
| 20260506233159 | 9 | 42 | 8.0 | 9.7 | 0.00 | 0.89 | 0.00 | 81 | 1007.3 |
| 20260506232704 | 8 | 38 | 6.4 | 8.0 | 0.00 | 0.89 | 0.00 | 84 | 1007.4 |
| 20260506232202 | 8 | 34 | 3.2 | 6.4 | 0.00 | 0.89 | 0.00 | 84 | 1007.4 |
| 20260506231702 | 8 | 34 | 4.8 | 6.4 | 0.00 | 0.89 | 0.00 | 84 | 1007.5 |
| 20260506231202 | 8 | 34 | 0.0 | 4.8 | 0.00 | 0.89 | 0.00 | 84 | 1007.5 |
| 20260506230702 | 8 | 34 | 3.2 | 4.8 | 0.00 | 0.89 | 0.00 | 84 | 1007.6 |
| 20260506230202 | 8 | 21 | 4.8 | 4.8 | 0.00 | 0.89 | 0.00 | 84 | 1007.6 |
| 20260506225702 | 9 | 21 | 3.2 | 4.8 | 0.00 | 0.89 | 0.00 | 84 | 1007.6 |
| 20260506225204 | 9 | 21 | 3.2 | 4.8 | 0.00 | 0.89 | 0.00 | 83 | 1007.6 |
| 20260506224701 | 9 | 21 | 1.6 | 8.0 | 0.00 | 0.89 | 0.00 | 82 | 1007.7 |
| 20260506224159 | 9 | 21 | 6.4 | 9.7 | 0.00 | 0.89 | 0.00 | 82 | 1007.5 |
| 20260506223659 | 10 | 10 | 4.8 | 11.3 | 0.00 | 0.89 | 0.00 | 80 | 1007.4 |
| 20260506223158 | 11 | 0 | 4.8 | 16.1 | 0.00 | 0.89 | 0.00 | 75 | 1007.4 |
| 20260506222659 | 11 | 75 | 8.0 | 17.7 | 0.00 | 0.89 | 0.00 | 76 | 1007.4 |
| 20260506222158 | 10 | 24 | 9.7 | 19.3 | 0.00 | 0.89 | 0.00 | 76 | 1007.3 |
| 20260506221942 | 10 | 59 | 11.3 | 19.3 | 0.00 | 0.89 | 0.00 | 78 | 1007.4 |
| 20260506221204 | 10 | 72 | 9.7 | 16.1 | 0.00 | 0.89 | 0.00 | 81 | 1007.4 |
| 20260506220700 | 9 | 76 | 4.8 | 6.4 | 0.00 | 0.89 | 0.00 | 84 | 1007.5 |
| 20260506220200 | 9 | 56 | 4.8 | 8.0 | 0.00 | 0.89 | 0.00 | 84 | 1007.5 |
| 20260506215945 | 9 | 134 | 3.2 | 8.0 | 0.00 | 0.89 | 0.89 | 83 | 1007.6 |
| 20260506215200 | 9 | 58 | 6.4 | 8.0 | 0.00 | 0.89 | 0.89 | 84 | 1007.5 |
| 20260506214701 | 9 | 80 | 4.8 | 6.4 | 0.00 | 0.89 | 0.89 | 84 | 1007.5 |
| 20260506214201 | 9 | 58 | 3.2 | 6.4 | 0.00 | 0.89 | 0.89 | 84 | 1007.5 |
| 20260506213700 | 9 | 58 | 3.2 | 4.8 | 0.00 | 0.89 | 0.89 | 84 | 1007.5 |
| 20260506213444 | 10 | 59 | 0.0 | 3.2 | 0.00 | 0.89 | 0.89 | 84 | 1007.5 |
| 20260506212700 | 10 | 59 | 1.6 | 4.8 | 0.00 | 0.89 | 0.89 | 84 | 1007.5 |
| 20260506212200 | 10 | 59 | 0.0 | 6.4 | 0.00 | 0.89 | 0.89 | 84 | 1007.5 |
| 20260506211700 | 10 | 59 | 3.2 | 11.3 | 0.00 | 0.89 | 0.89 | 84 | 1007.5 |
| 20260506211200 | 10 | 14 | 8.0 | 11.3 | 0.00 | 0.89 | 0.89 | 83 | 1007.6 |
| 20260506211010 | 10 | 0 | 6.4 | 8.0 | 0.00 | 0.89 | 0.89 | 81 | 1007.5 |
| 20260506210444 | 10 | 154 | 1.6 | 11.3 | 0.00 | 0.89 | 0.89 | 79 | 1007.4 |
| 20260506205700 | 10 | 155 | 1.6 | 11.3 | 0.00 | 0.89 | 0.89 | 78 | 1007.3 |
| 20260506205159 | 10 | 58 | 6.4 | 9.7 | 0.00 | 0.89 | 0.89 | 80 | 1007.2 |
| 20260506204659 | 10 | 69 | 4.8 | 6.4 | 0.00 | 0.89 | 0.89 | 82 | 1007.2 |
| 20260506204157 | 10 | 82 | 0.0 | 6.4 | 0.00 | 0.89 | 0.89 | 83 | 1007.2 |
| 20260506203658 | 10 | 82 | 3.2 | 6.4 | 0.00 | 0.89 | 0.89 | 82 | 1007.1 |
| 20260506203150 | 10 | 82 | 3.2 | 8.0 | 0.00 | 0.89 | 0.89 | 82 | 1007.3 |
| 20260506202651 | 10 | 83 | 3.2 | 8.0 | 0.00 | 0.89 | 0.89 | 82 | 1007.3 |
| 20260506202152 | 10 | 21 | 4.8 | 6.4 | 0.00 | 0.89 | 0.89 | 82 | 1007.1 |
| 20260506201648 | 10 | 23 | 0.0 | 6.4 | 0.00 | 0.89 | 0.89 | 82 | 1007.1 |
| 20260506201153 | 10 | 147 | 0.0 | 4.8 | 0.00 | 0.89 | 0.89 | 82 | 1007.1 |
| 20260506200649 | 10 | 141 | 0.0 | 8.0 | 0.00 | 0.89 | 0.89 | 81 | 1007.0 |
| 20260506200146 | 10 | 102 | 3.2 | 8.0 | 0.00 | 0.89 | 0.89 | 80 | 1006.8 |
| 20260506195651 | 10 | 89 | 4.8 | 11.3 | 0.00 | 0.89 | 0.89 | 81 | 1006.8 |
| 20260506195149 | 10 | 135 | 4.8 | 14.5 | 0.00 | 0.89 | 0.89 | 81 | 1006.8 |
| 20260506194647 | 11 | 63 | 3.2 | 14.5 | 0.00 | 0.89 | 0.89 | 79 | 1006.6 |
| 20260506194149 | 10 | 55 | 8.0 | 11.3 | 0.00 | 0.89 | 0.89 | 83 | 1006.6 |
| 20260506193645 | 10 | 69 | 3.2 | 8.0 | 0.00 | 0.89 | 0.89 | 85 | 1006.6 |
| 20260506193144 | 10 | 76 | 6.4 | 9.7 | 0.03 | 0.89 | 0.89 | 84 | 1006.6 |
| 20260506192644 | 10 | 76 | 3.2 | 9.7 | 0.03 | 0.89 | 0.89 | 83 | 1006.5 |
| 20260506192142 | 11 | 76 | 6.4 | 9.7 | 0.03 | 0.89 | 0.89 | 82 | 1006.5 |
| 20260506191640 | 11 | 25 | 6.4 | 8.0 | 0.03 | 0.89 | 0.89 | 81 | 1006.6 |
| 20260506191141 | 11 | 0 | 3.2 | 11.3 | 0.03 | 0.89 | 0.89 | 80 | 1006.5 |
| 20260506190644 | 11 | 97 | 1.6 | 17.7 | 0.03 | 0.89 | 0.89 | 77 | 1005.9 |
| 20260506190532 | 11 | 79 | 9.7 | 17.7 | 0.03 | 0.89 | 0.89 | 77 | 1005.9 |
| 20260506185639 | 11 | 76 | 11.3 | 16.1 | 0.03 | 0.89 | 0.89 | 80 | 1006.0 |
| 20260506185144 | 11 | 71 | 4.8 | 9.7 | 0.03 | 0.89 | 0.89 | 82 | 1005.9 |
| 20260506184639 | 11 | 59 | 1.6 | 11.3 | 0.03 | 0.89 | 0.89 | 81 | 1005.9 |
| 20260506184138 | 11 | 72 | 9.7 | 14.5 | 0.03 | 0.89 | 0.89 | 79 | 1005.8 |
| 20260506183637 | 11 | 79 | 9.7 | 14.5 | 0.03 | 0.89 | 0.89 | 79 | 1005.7 |
| 20260506183423 | 12 | 89 | 8.0 | 11.3 | 0.00 | 0.89 | 0.86 | 80 | 1005.8 |
| 20260506182637 | 11 | 96 | 4.8 | 9.7 | 0.00 | 0.89 | 0.86 | 79 | 1005.7 |
| 20260506182208 | 11 | 117 | 1.6 | 8.0 | 0.00 | 0.89 | 0.86 | 82 | 1005.6 |
| 20260506182152 | 11 | 96 | 6.4 | 9.7 | 0.00 | 0.89 | 0.86 | 80 | 1005.6 |
| 20260506181134 | 11 | 117 | 6.4 | 8.0 | 0.00 | 0.89 | 0.86 | 84 | 1005.6 |
| 20260506180638 | 11 | 142 | 4.8 | 8.0 | 0.00 | 0.89 | 0.86 | 84 | 1005.6 |
| 20260506180130 | 11 | 154 | 3.2 | 3.2 | 0.00 | 0.89 | 0.86 | 85 | 1005.5 |
| 20260506175632 | 12 | 154 | 0.0 | 4.8 | 0.00 | 0.89 | 0.86 | 84 | 1005.5 |
| 20260506175130 | 12 | 154 | 1.6 | 6.4 | 0.00 | 0.89 | 0.86 | 84 | 1005.5 |
| 20260506174635 | 12 | 159 | 0.0 | 6.4 | 0.00 | 0.89 | 0.86 | 84 | 1005.4 |
| 20260506174129 | 12 | 124 | 1.6 | 6.4 | 0.00 | 0.89 | 0.86 | 81 | 1005.4 |
| 20260506173630 | 12 | 124 | 4.8 | 6.4 | 0.00 | 0.89 | 0.86 | 83 | 1005.4 |
| 20260506173412 | 12 | 124 | 3.2 | 6.4 | 0.00 | 0.89 | 0.86 | 82 | 1005.4 |
| 20260506172629 | 12 | 114 | 3.2 | 4.8 | 0.00 | 0.89 | 0.86 | 82 | 1005.4 |
| 20260506172127 | 12 | 114 | 1.6 | 4.8 | 0.00 | 0.89 | 0.86 | 82 | 1005.3 |
| 20260506171628 | 12 | 111 | 0.0 | 6.4 | 0.00 | 0.89 | 0.86 | 81 | 1005.0 |
| 20260506171152 | 13 | 182 | 3.2 | 6.4 | 0.00 | 0.89 | 0.86 | 80 | 1005.1 |
| 20260506171146 | 12 | 111 | 4.8 | 6.4 | 0.00 | 0.89 | 0.86 | 81 | 1005.0 |
| 20260506170122 | 13 | 182 | 3.2 | 6.4 | 0.00 | 0.89 | 0.86 | 79 | 1005.1 |
| 20260506165903 | 13 | 190 | 4.8 | 6.4 | 0.00 | 0.89 | 0.86 | 79 | 1005.1 |
| 20260506165123 | 13 | 235 | 0.0 | 4.8 | 0.00 | 0.89 | 0.86 | 77 | 1005.1 |
| 20260506164625 | 13 | 235 | 0.0 | 8.0 | 0.00 | 0.89 | 0.86 | 80 | 1005.1 |
| 20260506164432 | 13 | 237 | 0.0 | 6.4 | 0.00 | 0.89 | 0.86 | 83 | 1004.9 |
| 20260506164427 | 13 | 235 | 4.8 | 8.0 | 0.00 | 0.89 | 0.86 | 81 | 1005.0 |
| 20260506163120 | 12 | 237 | 4.8 | 6.4 | 0.00 | 0.89 | 0.86 | 83 | 1005.0 |
| 20260506162618 | 12 | 240 | 1.6 | 6.4 | 0.00 | 0.89 | 0.86 | 83 | 1004.9 |
| 20260506162120 | 12 | 224 | 3.2 | 6.4 | 0.00 | 0.89 | 0.86 | 83 | 1004.9 |
| 20260506161616 | 12 | 224 | 3.2 | 4.8 | 0.00 | 0.89 | 0.86 | 82 | 1004.9 |
| 20260506161341 | 12 | 224 | 1.6 | 6.4 | 0.00 | 0.89 | 0.86 | 82 | 1005.0 |
| 20260506160621 | 12 | 224 | 3.2 | 6.4 | 0.00 | 0.89 | 0.86 | 83 | 1005.1 |
| 20260506160118 | 13 | 230 | 0.0 | 3.2 | 0.00 | 0.89 | 0.86 | 82 | 1004.9 |
| 20260506155618 | 12 | 230 | 0.0 | 4.8 | 0.00 | 0.89 | 0.86 | 82 | 1005.1 |
| 20260506155115 | 12 | 230 | 0.0 | 6.4 | 0.00 | 0.89 | 0.86 | 81 | 1005.0 |
| 20260506154613 | 13 | 228 | 4.8 | 6.4 | 0.00 | 0.89 | 0.86 | 81 | 1005.0 |
| 20260506154112 | 13 | 217 | 1.6 | 4.8 | 0.00 | 0.89 | 0.86 | 83 | 1005.0 |
| 20260506153614 | 12 | 217 | 0.0 | 3.2 | 0.00 | 0.89 | 0.86 | 83 | 1005.0 |
| 20260506153111 | 12 | 217 | 0.0 | 3.2 | 0.00 | 0.89 | 0.86 | 85 | 1004.9 |
| 20260506152850 | 12 | 217 | 0.0 | 3.2 | 0.00 | 0.89 | 0.86 | 84 | 1005.1 |
| 20260506152115 | 12 | 217 | 0.0 | 3.2 | 0.00 | 0.89 | 0.86 | 80 | 1005.1 |
| 20260506151608 | 12 | 217 | 0.0 | 6.4 | 0.00 | 0.89 | 0.86 | 84 | 1005.2 |
| 20260506151344 | 12 | 217 | 0.0 | 6.4 | 0.00 | 0.89 | 0.86 | 86 | 1005.2 |
| 20260506150840 | 12 | 217 | 1.6 | 6.4 | 0.00 | 0.89 | 0.86 | 83 | 1005.2 |
| 20260506150346 | 12 | 224 | 0.0 | 8.0 | 0.00 | 0.89 | 0.86 | 82 | 1005.3 |
| 20260506145607 | 12 | 265 | 4.8 | 8.0 | 0.00 | 0.89 | 0.86 | 84 | 1005.4 |
| 20260506145108 | 12 | 282 | 3.2 | 8.0 | 0.00 | 0.89 | 0.86 | 85 | 1005.4 |
| 20260506144607 | 12 | 268 | 4.8 | 8.0 | 0.00 | 0.89 | 0.86 | 84 | 1005.4 |
| 20260506144114 | 12 | 274 | 1.6 | 8.0 | 0.00 | 0.89 | 0.86 | 87 | 1005.5 |
| 20260506143606 | 12 | 305 | 3.2 | 6.4 | 0.00 | 0.89 | 0.86 | 86 | 1005.5 |
| 20260506143104 | 11 | 334 | 3.2 | 4.8 | 0.03 | 0.89 | 0.86 | 85 | 1005.5 |
| 20260506142843 | 11 | 338 | 0.0 | 3.2 | 0.05 | 0.89 | 0.86 | 82 | 1005.6 |
| 20260506142103 | 11 | 331 | 1.6 | 4.8 | 0.05 | 0.89 | 0.86 | 85 | 1005.6 |
| 20260506141603 | 11 | 331 | 3.2 | 4.8 | 0.05 | 0.89 | 0.86 | 86 | 1005.8 |
| 20260506141103 | 11 | 336 | 3.2 | 6.4 | 0.05 | 0.89 | 0.86 | 86 | 1005.8 |
| 20260506140603 | 11 | 337 | 3.2 | 6.4 | 0.08 | 0.89 | 0.86 | 85 | 1005.8 |
| 20260506140104 | 11 | 223 | 3.2 | 6.4 | 0.10 | 0.89 | 0.86 | 83 | 1005.8 |
| 20260506135602 | 11 | 83 | 3.2 | 16.1 | 0.13 | 0.79 | 0.86 | 83 | 1005.8 |
| 20260506135102 | 11 | 49 | 6.4 | 16.1 | 0.15 | 0.79 | 0.86 | 79 | 1006.0 |
| 20260506134604 | 10 | 82 | 9.7 | 22.5 | 0.15 | 0.79 | 0.86 | 79 | 1006.1 |
| 20260506134102 | 10 | 113 | 11.3 | 24.1 | 0.18 | 0.79 | 0.86 | 79 | 1006.2 |
| 20260506133603 | 10 | 82 | 14.5 | 24.1 | 0.23 | 0.79 | 0.86 | 79 | 1006.2 |
| 20260506133102 | 11 | 86 | 14.5 | 30.6 | 0.36 | 0.79 | 0.84 | 77 | 1006.6 |
| 20260506132608 | 11 | 97 | 12.9 | 30.6 | 0.51 | 0.79 | 0.81 | 76 | 1006.7 |
| 20260506132104 | 11 | 99 | 6.4 | 30.6 | 0.58 | 0.79 | 0.81 | 76 | 1006.6 |
| 20260506131609 | 11 | 128 | 17.7 | 30.6 | 0.61 | 0.79 | 0.81 | 75 | 1006.7 |
| 20260506131103 | 11 | 71 | 16.1 | 29.0 | 0.61 | 0.79 | 0.79 | 79 | 1006.6 |
| 20260506130839 | 11 | 90 | 16.1 | 29.0 | 0.58 | 0.79 | 0.79 | 79 | 1006.8 |
| 20260506130551 | 11 | 87 | 16.1 | 29.0 | 0.56 | 0.79 | 0.76 | 78 | 1006.7 |
| 20260506125603 | 11 | 104 | 16.1 | 33.8 | 0.53 | 0.23 | 0.74 | 77 | 1006.8 |
| 20260506125103 | 11 | 68 | 19.3 | 33.8 | 0.51 | 0.23 | 0.71 | 79 | 1006.8 |
| 20260506124611 | 10 | 69 | 17.7 | 32.2 | 0.51 | 0.23 | 0.71 | 80 | 1006.7 |
| 20260506124116 | 10 | 86 | 17.7 | 32.2 | 0.48 | 0.25 | 0.66 | 79 | 1006.7 |
| 20260506123631 | 10 | 55 | 14.5 | 43.5 | 0.43 | 0.25 | 0.61 | 78 | 1006.7 |
| 20260506123241 | 10 | 116 | 17.7 | 43.5 | 0.28 | 0.25 | 0.43 | 81 | 1007.1 |
| 20260506122602 | 10 | 10 | 24.1 | 45.1 | 0.13 | 0.28 | 0.28 | 81 | 1007.0 |
| 20260506122103 | 11 | 323 | 17.7 | 45.1 | 0.05 | 0.28 | 0.23 | 81 | 1006.0 |
| 20260506121602 | 11 | 279 | 20.9 | 35.4 | 0.00 | 0.30 | 0.20 | 85 | 1005.9 |
| 20260506121104 | 12 | 327 | 12.9 | 24.1 | 0.00 | 0.33 | 0.20 | 85 | 1005.9 |
| 20260506120613 | 12 | 261 | 6.4 | 11.3 | 0.00 | 0.33 | 0.20 | 84 | 1005.6 |
| 20260506120347 | 12 | 285 | 3.2 | 6.4 | 0.00 | 0.33 | 0.20 | 84 | 1005.3 |
| 20260506115605 | 12 | 265 | 1.6 | 4.8 | 0.00 | 0.33 | 0.20 | 85 | 1005.4 |
| 20260506115102 | 12 | 262 | 1.6 | 3.2 | 0.00 | 0.33 | 0.20 | 84 | 1005.4 |
| 20260506114607 | 12 | 262 | 1.6 | 4.8 | 0.00 | 0.33 | 0.20 | 85 | 1005.3 |
| 20260506114353 | 12 | 262 | 1.6 | 8.0 | 0.00 | 0.33 | 0.20 | 84 | 1005.2 |
| 20260506113602 | 12 | 262 | 3.2 | 8.0 | 0.00 | 0.33 | 0.20 | 85 | 1005.2 |
| 20260506113351 | 12 | 248 | 3.2 | 14.5 | 0.00 | 0.33 | 0.20 | 86 | 1005.3 |
| 20260506112605 | 12 | 283 | 9.7 | 14.5 | 0.00 | 0.33 | 0.20 | 85 | 1005.3 |
| 20260506112105 | 12 | 307 | 4.8 | 9.7 | 0.00 | 0.33 | 0.20 | 84 | 1005.4 |
| 20260506111606 | 12 | 204 | 3.2 | 6.4 | 0.00 | 0.33 | 0.20 | 83 | 1005.4 |
| 20260506111105 | 12 | 204 | 3.2 | 6.4 | 0.00 | 0.36 | 0.20 | 84 | 1005.4 |
| 20260506110606 | 12 | 204 | 3.2 | 6.4 | 0.00 | 0.36 | 0.20 | 85 | 1005.6 |
| 20260506110105 | 11 | 243 | 4.8 | 6.4 | 0.00 | 0.36 | 0.20 | 85 | 1005.7 |
| 20260506105603 | 11 | 244 | 0.0 | 4.8 | 0.00 | 0.38 | 0.20 | 87 | 1006.0 |
| 20260506105104 | 11 | 244 | 3.2 | 4.8 | 0.00 | 0.38 | 0.20 | 87 | 1006.0 |
| 20260506104602 | 11 | 244 | 3.2 | 4.8 | 0.00 | 0.41 | 0.20 | 89 | 1006.2 |
| 20260506104413 | 11 | 244 | 1.6 | 3.2 | 0.00 | 0.43 | 0.20 | 88 | 1006.4 |
| 20260506103602 | 11 | 244 | 1.6 | 4.8 | 0.00 | 0.48 | 0.20 | 88 | 1006.5 |
| 20260506103435 | 11 | 244 | 0.0 | 4.8 | 0.00 | 0.51 | 0.20 | 88 | 1006.5 |
| 20260506102602 | 11 | 244 | 3.2 | 4.8 | 0.00 | 0.53 | 0.20 | 88 | 1006.5 |
| 20260506102102 | 11 | 244 | 3.2 | 8.0 | 0.00 | 0.56 | 0.20 | 88 | 1006.4 |
| 20260506101602 | 11 | 296 | 3.2 | 11.3 | 0.00 | 0.58 | 0.20 | 87 | 1006.6 |
| 20260506101352 | 11 | 288 | 6.4 | 11.3 | 0.00 | 0.61 | 0.20 | 87 | 1006.5 |
| 20260506100604 | 11 | 252 | 4.8 | 11.3 | 0.00 | 0.61 | 0.20 | 88 | 1006.4 |
| 20260506095848 | 11 | 289 | 4.8 | 9.7 | 0.00 | 0.61 | 0.20 | 85 | 1006.5 |
| 20260506095103 | 11 | 251 | 4.8 | 9.7 | 0.00 | 0.64 | 0.20 | 86 | 1006.5 |
| 20260506094603 | 11 | 285 | 3.2 | 6.4 | 0.00 | 0.64 | 0.20 | 83 | 1006.4 |
| 20260506094103 | 11 | 302 | 3.2 | 6.4 | 0.00 | 0.64 | 0.20 | 84 | 1006.4 |
| 20260506093610 | 11 | 231 | 1.6 | 4.8 | 0.00 | 0.64 | 0.20 | 82 | 1006.2 |
| 20260506093102 | 11 | 231 | 1.6 | 4.8 | 0.00 | 0.64 | 0.20 | 84 | 1006.2 |
| 20260506092602 | 11 | 231 | 3.2 | 4.8 | 0.00 | 0.64 | 0.20 | 84 | 1006.2 |
| 20260506092102 | 11 | 231 | 0.0 | 4.8 | 0.00 | 0.64 | 0.20 | 86 | 1006.2 |
| 20260506091602 | 11 | 288 | 3.2 | 4.8 | 0.00 | 0.64 | 0.20 | 85 | 1006.2 |
| 20260506091102 | 11 | 288 | 1.6 | 6.4 | 0.00 | 0.64 | 0.20 | 87 | 1006.2 |
| 20260506090603 | 11 | 288 | 1.6 | 6.4 | 0.00 | 0.64 | 0.20 | 87 | 1006.2 |
| 20260506085608 | 11 | 254 | 0.0 | 3.2 | 0.00 | 0.64 | 0.20 | 89 | 1006.5 |
| 20260506085102 | 10 | 254 | 0.0 | 4.8 | 0.00 | 0.64 | 0.20 | 88 | 1006.5 |
| 20260506084603 | 10 | 254 | 3.2 | 6.4 | 0.00 | 0.64 | 0.20 | 89 | 1006.5 |
| 20260506084102 | 10 | 252 | 3.2 | 6.4 | 0.00 | 0.64 | 0.20 | 90 | 1006.4 |
| 20260506083602 | 10 | 265 | 3.2 | 4.8 | 0.00 | 0.64 | 0.20 | 90 | 1006.4 |
| 20260506083102 | 10 | 262 | 1.6 | 4.8 | 0.00 | 0.64 | 0.20 | 90 | 1006.4 |
| 20260506082602 | 10 | 261 | 3.2 | 4.8 | 0.00 | 0.64 | 0.20 | 89 | 1006.4 |
| 20260506082349 | 10 | 261 | 0.0 | 4.8 | 0.00 | 0.66 | 0.20 | 90 | 1006.4 |